Flight Track Log - Related Links

Times and Time Zones

All times are in EDT time to prevent confusion due to time zone crossing. See the N892PB flight status page for this flight to view local times or setup timezone preferences in your user account.

Time Position Orientation Groundspeed Altitude Reporting Facility
EDT Latitude Longitude Course Direction KTS MPH feet Rate Location/Type
11:24AM 30.3403 -81.5061 North 171 197 300  Level Jacksonville Center
11:25AM 30.3842 -81.5031 North 208 239 2,000 2,431 Climbing Jacksonville Center
11:26AM 30.4422 -81.4733 24° Northeast 217 250 5,000 2,698 Climbing Jacksonville Center
11:27AM 30.5044 -81.4267 33° Northeast 224 258 8,700 2,408 Climbing Jacksonville Center
11:28AM 30.5542 -81.3994 25° Northeast 204 235 10,700 1,850 Climbing Jacksonville Center
11:29AM 30.6147 -81.3889 North 204 235 12,400 1,650 Climbing Jacksonville Center
11:30AM 30.6753 -81.3831 North 209 241 14,000 1,750 Climbing Jacksonville Center
11:31AM 30.7397 -81.3722 North 220 253 15,900 1,750 Climbing Jacksonville Center
11:32AM 30.8003 -81.3642 North 220 253 17,500 1,200 Climbing Jacksonville Center
11:33AM 30.8689 -81.3558 North 220 253 18,300 1,150 Climbing Jacksonville Center
11:34AM 30.9378 -81.3450 North 238 274 19,800 1,350 Climbing Jacksonville Center
11:35AM 31.0086 -81.3389 North 243 280 21,000 1,200 Climbing Jacksonville Center
11:36AM 31.0797 -81.3328 North 248 285 22,200 1,250 Climbing Jacksonville Center
11:37AM 31.1547 -81.3267 North 258 297 23,500 1,250 Climbing Jacksonville Center
11:38AM 31.2297 -81.3183 North 258 297 24,700 1,000 Climbing Jacksonville Center
11:39AM 31.3047 -81.3072 North 263 303 25,500 950 Climbing Jacksonville Center
11:40AM 31.3944 -81.3033 North 280 322 26,600 750 Climbing Jacksonville Center
11:41AM 31.4758 -81.2947 North 280 322 27,000 200 Climbing Jacksonville Center
11:42AM 31.5572 -81.2811 North 312 359 27,000  Level Jacksonville Center
11:43AM 31.6633 -81.2644 North 339 390 27,000  Level Jacksonville Center
11:44AM 31.7531 -81.2531 North 353 406 27,000  Level Jacksonville Center
11:45AM 31.8656 -81.2364 North 363 418 27,000  Level Jacksonville Center
11:46AM 31.9572 -81.2225 North 369 425 27,000  Level Jacksonville Center
11:47AM 32.0636 -81.2083 North 369 425 27,000  Level Jacksonville Center
11:48AM 32.1678 -81.1942 North 369 425 27,000  Level Jacksonville Center
11:49AM 32.2631 -81.1408 25° Northeast 369 425 27,000  Level Jacksonville Center
11:50AM 32.3561 -81.0850 27° Northeast 369 425 27,000  Level Jacksonville Center
11:51AM 32.4514 -81.0289 26° Northeast 374 430 27,000  Level Jacksonville Center
11:52AM 32.5403 -80.9631 32° Northeast 374 430 27,000  Level Jacksonville Center
11:53AM 32.6289 -80.8919 34° Northeast 374 430 27,000  Level Jacksonville Center
11:54AM 32.7133 -80.8211 35° Northeast 374 430 27,000  Level Jacksonville Center
11:55AM 32.7975 -80.7450 37° Northeast 374 430 27,000  Level Jacksonville Center
11:56AM 32.8797 -80.6639 40° Northeast 379 436 27,000  Level Jacksonville Center
11:57AM 32.9639 -80.5875 37° Northeast 379 436 27,000  Level Jacksonville Center
11:58AM 33.0481 -80.5111 37° Northeast 379 436 27,000  Level Jacksonville Center
11:59AM 33.1450 -80.4539 26° Northeast 379 436 27,000  Level Jacksonville Center
12:00PM 33.2544 -80.3939 25° Northeast 379 436 27,000  Level Jacksonville Center
12:01PM 33.3514 -80.3389 25° Northeast 384 442 27,000  Level Jacksonville Center
12:02PM 33.4483 -80.2839 25° Northeast 384 442 27,000  Level Jacksonville Center
12:03PM 33.5453 -80.2311 24° Northeast 378 435 27,000  Level Jacksonville Center
12:04PM 33.6469 -80.1931 17° North 378 435 27,000  Level Jacksonville Center
12:05PM 33.7483 -80.1525 18° North 378 435 27,000  Level Jacksonville Center
12:06PM 33.8497 -80.1144 17° North 378 435 27,000  Level Jacksonville Center
12:07PM 33.9511 -80.0761 17° North 378 435 27,000  Level Jacksonville Center
12:08PM 34.0544 -80.0353 18° North 378 435 27,000  Level Jacksonville Center
12:09PM 34.1558 -79.9967 17° North 378 435 27,000  Level Jacksonville Center
12:10PM 34.2592 -79.9556 18° North 378 435 27,000  Level Jacksonville Center
12:11PM 34.3625 -79.9144 18° North 378 435 27,000  Level Jacksonville Center
12:12PM 34.4639 -79.8756 18° North 378 435 27,000  Level Jacksonville Center
12:15PM 34.7017 -79.7728 20° North 373 429 27,000  Level Washington Center
12:16PM 34.8014 -79.7250 21° North 378 435 27,000 -248 Level Washington Center
12:17PM 34.8975 -79.6589 29° Northeast 378 435 26,500 -595 Descending Washington Center
12:18PM 34.9981 -79.5903 29° Northeast 396 456 25,800 -645 Descending Washington Center
12:19PM 35.0981 -79.5269 27° Northeast 396 456 25,200 -397 Descending Washington Center
12:20PM 35.1983 -79.4606 28° Northeast 401 461 25,000 -103 Descending Washington Center
12:21PM 35.2944 -79.3964 29° Northeast 401 461 25,000  Level Washington Center
12:22PM 35.3881 -79.3322 29° Northeast 394 453 25,000  Level Washington Center
12:23PM 35.4756 -79.2750 28° Northeast 394 453 25,000  Level Washington Center
12:24PM 35.5692 -79.2103 29° Northeast 388 447 25,000  Level Washington Center
12:25PM 35.6758 -79.1386 29° Northeast 388 447 25,000  Level Washington Center
12:26PM 35.7717 -79.0736 29° Northeast 388 447 25,000  Level Washington Center
12:27PM 35.8694 -79.0061 29° Northeast 388 447 25,000  Level Washington Center
12:28PM 35.9694 -78.9411 28° Northeast 388 447 25,000  Level Washington Center
12:29PM 36.0544 -78.8806 30° Northeast 388 447 25,000  Level Washington Center
12:30PM 36.1525 -78.8128 29° Northeast 388 447 25,000  Level Washington Center
12:31PM 36.2503 -78.7419 30° Northeast 393 452 25,000  Level Washington Center
12:32PM 36.3481 -78.6764 28° Northeast 398 458 25,000  Level Washington Center
12:33PM 36.4414 -78.6078 31° Northeast 398 458 25,000  Level Washington Center
12:34PM 36.5369 -78.5442 28° Northeast 393 452 25,000  Level Washington Center
12:35PM 36.6306 -78.4753 31° Northeast 387 445 25,000 -248 Level Washington Center
12:36PM 36.7325 -78.3933 33° Northeast 387 445 24,500 -496 Descending Washington Center
12:37PM 36.8303 -78.3217 30° Northeast 392 451 24,000 -400 Descending Washington Center
12:38PM 36.9236 -78.2497 32° Northeast 397 457 23,700 -298 Descending Washington Center
12:39PM 37.0125 -78.1878 29° Northeast 397 457 23,400 -298 Descending Washington Center
12:40PM 37.1142 -78.1156 30° Northeast 391 450 23,100 -356 Descending Washington Center
12:41PM 37.2094 -78.0483 29° Northeast 386 444 22,700 -407 Descending Washington Center
12:42PM 37.3006 -77.9756 32° Northeast 386 444 22,300 -347 Descending Washington Center
12:43PM 37.3939 -77.9081 30° Northeast 386 444 22,000 -148 Descending Washington Center
12:44PM 37.4847 -77.8400 31° Northeast 386 444 22,000 -857 Level Washington Center
12:45PM 37.5797 -77.7747 29° Northeast 386 444 20,300 -1,513 Descending Washington Center
12:46PM 37.6750 -77.7092 29° Northeast 386 444 19,000 -1,279 Descending Washington Center
12:47PM 37.7697 -77.6542 25° Northeast 381 438 17,700 -1,831 Descending Washington Center
12:48PM 37.8603 -77.6064 23° Northeast 361 415 15,400 -2,441 Descending Washington Center
12:49PM 37.9400 -77.5692 20° North 334 384 12,900 -2,380 Descending Washington Center
12:50PM 38.0136 -77.5394 18° North 308 354 10,600 -1,438 Descending Washington Center
12:51PM 38.0892 -77.5019 21° North 284 327 10,000 -295 Descending Washington Center
12:52PM 38.1628 -77.4614 23° Northeast 284 327 10,000 -496 Level Washington Center
12:53PM 38.2397 -77.4819 348° North 274 315 9,000 -1,271 Descending Washington Center
12:54PM 38.3056 -77.5311 330° Northwest 269 310 7,500 -1,881 Descending Washington Center
12:55PM 38.3675 -77.5753 331° Northwest 264 304 5,300 -1,850 Descending Washington Center
12:56PM 38.4292 -77.6244 328° Northwest 259 298 3,800 -1,140 Descending Washington Center
12:57PM 38.4867 -77.6711 328° Northwest 259 298 3,000 -393 Descending Washington Center
12:58PM 38.5528 -77.7075 337° Northwest 251 289 3,000  Level Washington Center
12:59PM 38.6128 -77.7358 340° North 251 289 3,000 -142 Level Washington Center
01:00PM 38.7333 -77.7833 343° North 233 268 2,600 -140 Descending Potomac TRACON
01:01PM 38.8000 -77.7667 11° North 191 220 2,600  Level Potomac TRACON
01:02PM 38.8333 -77.7667 360° North 182 209 2,600  Level Potomac TRACON
01:03PM 38.8667 -77.7167 49° Northeast 187 215 2,600  Level Potomac TRACON
01:04PM 38.8833 -77.6500 72° East 184 212 2,600  Level Potomac TRACON
01:05PM 38.8500 -77.6000 131° Southeast 172 198 2,600 -200 Level Potomac TRACON
01:06PM 38.8167 -77.5833 159° South 129 148 2,200 -526 Descending Potomac TRACON
01:07PM 38.8000 -77.5667 142° Southeast 110 127 1,600 -632 Descending Potomac TRACON
01:08PM 38.7667 -77.5500 159° South 105 121 1,000 -500 Descending Potomac TRACON
01:09PM 38.7333 -77.5333 159° South 109 125 600 -400 Descending Potomac TRACON
01:11PM 38.7210 -77.5151 112° Southeast  Level Estimated
01:18PM 38.7210 -77.5151 112° Southeast  Level Estimated
01:19PM 38.7210 -77.5151 112° Southeast  Level Estimated
01:20PM 38.7210 -77.5151 112° Southeast  Level Estimated
01:21PM 38.7210 -77.5151 112° Southeast  Level Estimated

Login

Don't have an account? Register now (free) for customized features, flight alerts, and more!